Showing default

GALAXY 31, 54243

Orbit data source: Space-Track

GALAXY 31, 54243 is a payload satellite owned by Intelsat SA (US) (US) in GEO that was launched on Sat, 12 Nov 2022 UTC via an FALCON 9 launch vehicle from the Air Force Eastern Test Range (AFETR). Payload-class satellites include a variety of spacecraft equipped with specific instruments for various scientific and technological missions. These include communications satellites like Starlink; space stations such as the ISS; scientific satellites like the Hubble; Earth observation satellites from companies like Planet Labs, Umbra, and HawkEye 360; GPS; miniature CubeSats for education and research; and military/defense satellites.

Loading next visibility...
Identifier
54243, 2022-153A
Orbit
GEO
Country
Flag of USUS
Related business
Manufacturer
Maxar Space Sol
Mission
Operational Commercial Communications
Bus & Motor
SSL-1300, R-4D
Mass
3,300 kg wet, ~2,000 kg dry
Launch date (UTC)
2022-11-12 (3 years ago)
Launch vehicle
FALCON 9
Launch site
Air Force Eastern Test Range (AFETR)
Object type
Payload
Rocket body
Debris
Shape & HBR
Box + 2 Pan, 13.5 m
Radar Cross Section
36.085 m², Large (>1 m²)

Expand to show TLE details & history
Last TLE update: 1 day ago

TLE from 1 day ago
0 GALAXY 31
1 54243U 22153A   25305.58659720  .00000024  00000-0  00000-0 0  9994
2 54243   0.0105 231.4476 0001684   3.5708 256.3096  1.00271731  4855
Epoch: 2025-11-01T14:04Z
TLE epoch observation values (Epoch: 2025-11-01T14:04:41.998Z)
Latitude
-0.03079°
Longitude
-121.01849°
Altitude
35,787.778 km
Speed
3.075 km/s
True Right ascension
08h 45m 05s
True Declination
0° 01' 51"
Sunlit
Object was in daylight at epoch
Visualization orbit readout
Latitude
Unknown
Longitude
Unknown
Altitude
Unknown
Speed
Unknown
Apparent Right ascension
Unknown
Apparent Declination
Unknown
Sunlit
N/A
Visualization observer readout
Local Sidereal Time
11:26:01
Azimuth
Unknown
Elevation
Unknown
Doppler factor
Unknown
Orbital elements
Apogee altitude
35,794.781 km
Perigee altitude
35,780.58 km
Semi-major axis
42,165.817 km
Eccentricity
0.00017
Inclination
0.0105°
RAAN
231.4476°
Arg. of periapsis
3.5708°
True anomaly
256.29085°
Mean anomaly
256.3096°
Eccentric anomaly
256.30023°
Mean motion
0.25067 °/min
Orbital period
1,436.15 mins
BSTAR
0
Loading maneuver chart data...
Computing Atmospheric mass density...
Loading historical data...
Loading historical data...
Loading historical data...
Loading historical data...
Loading historical data...
Loading historical data...
Loading historical data...
Other satellites on launch #153 in the year 2022 (2022-11-12 UTC)

Documentation

Showing up to 5 results
|